Weather History for KEBG - March, 2014

Change the Weather History Date:

Friday, March 14, 2014

  Actual Average (KMFE) Record (KMFE)
Temperature  
Mean Temperature 68 °F 70 °F  
Max Temperature 83 °F 81 °F 104 °F (2008)
Min Temperature 54 °F 59 °F 37 °F (1905)
Degree Days  
Heating Degree Days 0 1  
Month to date heating degree days 25  
Since 1 July heating degree days 558  
Cooling Degree Days 4 7  
Month to date cooling degree days 81  
Year to date cooling degree days 240  
Growing Degree Days 18 (Base 50)    
Moisture  
Dew Point 57 °F    
Average Humidity 70    
Maximum Humidity 92    
Minimum Humidity 40    
Precipitation  
Precipitation 0.00 in 0.03 in 1.28 in (2000)
Month to date precipitation 0.49  
Year to date precipitation 2.65  
Sea Level Pressure  
Sea Level Pressure 30.00 in    
Wind  
Wind Speed 8 mph (SE)    
Max Wind Speed 21 mph    
Max Gust Speed 25 mph    
Visibility 10 miles    
Events      
T = Trace of Precipitation, MM = Missing Value Source: NWS Daily Summary

Daily Weather History Graph

Daily Weather History Graph

Search for Another Location

Airport or City:

Trip Planner

Search our weather history database for the weather conditions in past years. The results will help you decide how hot, cold, wet, or windy it might be!

Date:

Astronomy

Mar. 14, 2014 Rise Set
Actual Time 7:42 AM CDT 7:40 PM CDT
Civil Twilight 7:19 AM CDT 8:03 PM CDT
Nautical Twilight 6:52 AM CDT 8:30 PM CDT
Astronomical Twilight 6:26 AM CDT 8:57 PM CDT
Moon 6:10 PM CDT (3/14) 6:15 AM CDT (3/14)
Length of Visible Light 12h 44m
Length of Day
11h 57m
Waxing Gibbous, 96% of the Moon is Illuminated
Mar 14
Waxing Gibbous
Mar 16
Full
Mar 23
Last Quarter
Mar 30
New
Apr 7
First Quarter

Hourly Weather History & Observations

Time (CDT) Temp. Heat Index Dew Point Humidity Pressure Visibility Wind Dir Wind Speed Gust Speed Precip Events Conditions
12:15 AM 57.7 °F - 52.2 °F 82% 30.12 in 10.0 mi ESE 4.6 mph - N/A   Clear
12:35 AM 56.8 °F - 52.0 °F 84% 30.11 in 10.0 mi ESE 5.8 mph - N/A   Clear
12:55 AM 56.8 °F - 52.2 °F 84% 30.11 in 10.0 mi ESE 3.5 mph - N/A   Clear
1:15 AM 57.2 °F - 52.3 °F 84% 30.10 in 10.0 mi ESE 4.6 mph - N/A   Clear
1:35 AM 56.7 °F - 52.5 °F 86% 30.09 in 10.0 mi ESE 3.5 mph - N/A   Clear
1:55 AM 57.2 °F - 53.1 °F 86% 30.09 in 10.0 mi ESE 4.6 mph - N/A   Clear
2:15 AM 57.2 °F - 52.9 °F 85% 30.09 in 10.0 mi ESE 5.8 mph - N/A   Clear
2:35 AM 57.2 °F - 53.4 °F 87% 30.09 in 10.0 mi ESE 3.5 mph - N/A   Clear
2:55 AM 56.7 °F - 52.7 °F 87% 30.07 in 10.0 mi ESE 4.6 mph - N/A   Clear
3:15 AM 55.8 °F - 52.0 °F 87% 30.06 in 10.0 mi ESE 4.6 mph - N/A   Clear
3:35 AM 55.4 °F - 52.0 °F 88% 30.05 in 10.0 mi ESE 4.6 mph - N/A   Clear
3:55 AM 55.4 °F - 52.2 °F 89% 30.05 in 10.0 mi ESE 3.5 mph - N/A   Scattered Clouds
4:15 AM 55.6 °F - 52.5 °F 89% 30.04 in 10.0 mi ESE 4.6 mph - N/A   Clear
4:35 AM 55.6 °F - 52.5 °F 89% 30.03 in 10.0 mi ESE 3.5 mph - N/A   Clear
4:55 AM 55.6 °F - 52.7 °F 90% 30.03 in 10.0 mi ESE 3.5 mph - N/A   Clear
5:15 AM 55.2 °F - 52.3 °F 90% 30.02 in 10.0 mi ESE 3.5 mph - N/A   Mostly Cloudy
5:35 AM 55.4 °F - 52.5 °F 90% 30.02 in 10.0 mi ESE 4.6 mph - N/A   Scattered Clouds
5:55 AM 55.0 °F - 52.2 °F 90% 30.01 in 10.0 mi ESE 3.5 mph - N/A   Clear
6:15 AM 54.9 °F - 52.2 °F 91% 30.01 in 10.0 mi ESE 3.5 mph - N/A   Clear
6:35 AM 54.7 °F - 52.2 °F 91% 30.00 in 10.0 mi ESE 3.5 mph - N/A   Scattered Clouds
6:55 AM 55.4 °F - 52.9 °F 91% 30.01 in 10.0 mi SE 4.6 mph - N/A   Scattered Clouds
7:15 AM 55.4 °F - 52.7 °F 91% 30.01 in 10.0 mi SE 4.6 mph - N/A   Clear
7:35 AM 55.2 °F - 52.9 °F 92% 30.01 in 10.0 mi SE 3.5 mph - N/A   Clear
7:55 AM 56.3 °F - 53.6 °F 91% 30.01 in 10.0 mi SE 5.8 mph - N/A   Clear
8:15 AM 56.8 °F - 54.5 °F 92% 30.01 in 7.0 mi SE 5.8 mph - N/A   Clear
8:35 AM 59.4 °F - 57.0 °F 92% 30.02 in 10.0 mi SE 6.9 mph - N/A   Clear
8:55 AM 61.7 °F - 58.8 °F 90% 30.02 in 10.0 mi ESE 6.9 mph - N/A   Scattered Clouds
9:15 AM 62.8 °F - 59.2 °F 88% 30.04 in 10.0 mi SE 6.9 mph - N/A   Mostly Cloudy
9:35 AM 64.8 °F - 60.3 °F 85% 30.05 in 10.0 mi SE 8.1 mph - N/A   Mostly Cloudy
9:55 AM 66.9 °F - 60.6 °F 80% 30.04 in 10.0 mi SSE 9.2 mph - N/A   Scattered Clouds
10:15 AM 68.9 °F - 60.4 °F 74% 30.05 in 10.0 mi SSE 11.5 mph - N/A   Clear
10:35 AM 71.4 °F - 61.2 °F 70% 30.05 in 10.0 mi SSE 11.5 mph 16.1 mph N/A   Clear
10:55 AM 71.4 °F - 59.7 °F 66% 30.05 in 10.0 mi SSE 12.7 mph 24.2 mph N/A   Scattered Clouds
11:15 AM 73.4 °F - 60.1 °F 63% 30.04 in 10.0 mi SSE 18.4 mph 21.9 mph N/A   Scattered Clouds
11:35 AM 72.9 °F - 59.5 °F 63% 30.04 in 10.0 mi SE 16.1 mph - N/A   Scattered Clouds
11:55 AM 76.3 °F - 59.4 °F 56% 30.04 in 10.0 mi SSE 16.1 mph 23.0 mph N/A   Scattered Clouds
12:15 PM 77.4 °F - 59.5 °F 54% 30.03 in 10.0 mi SSE 15.0 mph 20.7 mph N/A   Scattered Clouds
12:35 PM 77.7 °F - 58.5 °F 51% 30.03 in 10.0 mi South 17.3 mph 23.0 mph N/A   Mostly Cloudy
12:55 PM 77.9 °F - 59.0 °F 52% 30.02 in 10.0 mi South 11.5 mph 21.9 mph N/A   Mostly Cloudy
1:15 PM 78.8 °F - 57.9 °F 49% 30.01 in 10.0 mi South 16.1 mph 21.9 mph N/A   Mostly Cloudy
1:35 PM 79.5 °F - 57.6 °F 47% 30.00 in 10.0 mi SSE 16.1 mph 23.0 mph N/A   Overcast
1:55 PM 79.7 °F - 57.7 °F 47% 29.98 in 10.0 mi SSE 20.7 mph 25.3 mph N/A   Overcast
2:15 PM 80.6 °F 80.9 °F 58.1 °F 46% 29.97 in 10.0 mi SSE 17.3 mph 23.0 mph N/A   Mostly Cloudy
2:35 PM 81.0 °F 81.0 °F 57.4 °F 44% 29.96 in 10.0 mi SSE 18.4 mph 24.2 mph N/A   Mostly Cloudy
2:55 PM 82.2 °F 82.0 °F 57.6 °F 43% 29.95 in 10.0 mi SSE 18.4 mph 24.2 mph N/A   Scattered Clouds
3:15 PM 83.1 °F 82.4 °F 56.5 °F 40% 29.94 in 10.0 mi South 17.3 mph - N/A   Scattered Clouds
3:35 PM 83.5 °F 82.8 °F 57.0 °F 40% 29.93 in 10.0 mi South 15.0 mph 20.7 mph N/A   Scattered Clouds
3:55 PM 80.6 °F 80.8 °F 57.6 °F 45% 29.92 in 10.0 mi SSE 15.0 mph 20.7 mph N/A   Mostly Cloudy
4:15 PM 80.8 °F 81.0 °F 57.4 °F 45% 29.91 in 10.0 mi SSE 11.5 mph 21.9 mph N/A   Mostly Cloudy
4:35 PM 79.7 °F - 57.7 °F 47% 29.91 in 10.0 mi SE 16.1 mph 21.9 mph N/A   Mostly Cloudy
4:55 PM 79.2 °F - 57.4 °F 47% 29.90 in 10.0 mi SSE 16.1 mph - N/A   Scattered Clouds
5:15 PM 79.2 °F - 58.1 °F 48% 29.90 in 10.0 mi SE 16.1 mph 21.9 mph N/A   Scattered Clouds
5:35 PM 80.8 °F 81.0 °F 57.4 °F 45% 29.90 in 10.0 mi SSE 16.1 mph - N/A   Clear
5:55 PM 79.9 °F - 57.0 °F 45% 29.90 in 10.0 mi South 16.1 mph 20.7 mph N/A   Scattered Clouds
6:15 PM 80.4 °F 80.6 °F 56.8 °F 44% 29.89 in 10.0 mi SSE 15.0 mph 20.7 mph N/A   Scattered Clouds
6:35 PM 79.9 °F - 56.8 °F 45% 29.90 in 10.0 mi SSE 16.1 mph 21.9 mph N/A   Mostly Cloudy
6:55 PM 77.5 °F - 57.0 °F 49% 29.90 in 10.0 mi SSE 12.7 mph - N/A   Scattered Clouds
7:15 PM 76.5 °F - 57.0 °F 51% 29.92 in 10.0 mi SSE 11.5 mph - N/A   Clear
7:35 PM 75.9 °F - 57.4 °F 52% 29.93 in 10.0 mi SSE 8.1 mph - N/A   Mostly Cloudy
7:55 PM 74.5 °F - 57.9 °F 56% 29.93 in 10.0 mi SSE 10.4 mph - N/A   Mostly Cloudy
8:15 PM 73.4 °F - 58.5 °F 59% 29.93 in 10.0 mi SSE 10.4 mph - N/A   Scattered Clouds
8:35 PM 72.3 °F - 58.8 °F 62% 29.94 in 10.0 mi SSE 9.2 mph - N/A   Clear
8:55 PM 70.9 °F - 59.2 °F 66% 29.94 in 10.0 mi SE 6.9 mph - N/A   Clear
9:15 PM 68.9 °F - 59.2 °F 71% 29.95 in 10.0 mi SE 5.8 mph - N/A   Clear
9:35 PM 68.5 °F - 59.7 °F 73% 29.95 in 10.0 mi SE 5.8 mph - N/A   Clear
9:55 PM 66.6 °F - 59.2 °F 77% 29.96 in 10.0 mi SE 5.8 mph - N/A   Clear
10:15 PM 66.2 °F - 59.4 °F 79% 29.96 in 10.0 mi SE 6.9 mph - N/A   Clear
10:35 PM 66.4 °F - 60.3 °F 81% 29.96 in 10.0 mi SE 6.9 mph - N/A   Clear
10:55 PM 66.7 °F - 60.8 °F 81% 29.96 in 10.0 mi ESE 5.8 mph - N/A   Clear
11:15 PM 65.7 °F - 59.7 °F 81% 29.97 in 10.0 mi ESE 4.6 mph - N/A   Clear
11:35 PM 64.4 °F - 59.4 °F 84% 29.96 in 10.0 mi ESE 4.6 mph - N/A   Clear
11:55 PM 64.4 °F - 60.6 °F 88% 29.96 in 10.0 mi ESE 5.8 mph - N/A   Clear